Home > Time Zones > World Clock > Weather > Iran > Tehran > Past weeks

Flag for Iran Weather past 2 weeks in Tehran, Iran

Now
68 °F

Clear.


Feels Like: 68 °F
Forecast: 63 / 79 °F
Wind: 5 mph from Northwest

Location: Tehran-Mehrabad

Current Time: Apr 22, 2015 at 4:39:41 AM

Latest Report: Apr 22, 2015 at 4:00 AM


Visibility: 10 mi

Pressure: 29.92 "Hg

Humidity: 18%

Dew point: 23 °F

Location of TehranLocation

Historic Weather in Tehran — Graph

°F

Tehran temperature yesterday

Maximum temperature yesterday: 81 °F (at 3:00 PM)
Minimum temperature yesterday: 59 °F (at 6:00 AM)
Average temperature yesterday: 72 °F

Past Weeks' High & Low Weather Summary

 TemperatureHumidityPressure
High84 °F (Apr 10, 6:00 PM)88% (Apr 11, 2:30 PM)30.21 "Hg (Apr 11, 2:30 PM)
Low50 °F (Apr 14, 5:00 AM)7% (Apr 8, 4:30 PM)29.83 "Hg (Apr 13, 3:30 PM)
Average67 °F26%30.00 "Hg
* Reported Apr 7 3:30 AM — Apr 22 3:30 AM, Tehran, Weather by CustomWeather, © 2015

Note: Actual official high and low records may vary slightly from our data, if they occured in-between our weather recording intervals... More about our weather records

Advertising

Tehran weather history for previous 24 hours

 ConditionsComfort  
Time TempWeatherWind HumidityBarometerVisibility
3:30 AM
Wed, Apr 22
68 °FClear.5 mph18%29.92 "Hg10 mi
3:00 AM68 °FClear.5 mph18%29.92 "Hg10 mi
2:30 AM68 °FClear.5 mph18%29.92 "Hg10 mi
2:00 AM70 °FClear.5 mph17%29.95 "Hg10 mi
1:25 AM70 °FClear.5 mph17%29.95 "Hg10 mi
1:00 AM72 °FClear.9 mph15%29.95 "Hg10 mi
12:30 AM72 °FClear.9 mph15%29.95 "Hg10 mi
12:00 AM72 °FClear.7 mph15%29.95 "Hg10 mi
11:30 PM
Tue, Apr 21
72 °FClear.7 mph15%29.95 "Hg10 mi
11:00 PM72 °FClear.7 mph17%29.95 "Hg10 mi
10:30 PM72 °FClear.7 mph19%29.95 "Hg10 mi
10:00 PM73 °FPassing clouds.5 mph16%29.95 "HgN/A
9:25 PM73 °FPassing clouds.5 mph16%29.95 "HgN/A
9:00 PM75 °FPassing clouds.7 mph14%29.92 "HgN/A
8:30 PM77 °FPassing clouds.5 mph13%29.92 "HgN/A
8:00 PM79 °FPassing clouds.No wind12%29.92 "HgN/A
7:30 PM79 °FPassing clouds.No wind12%29.92 "HgN/A
7:00 PM79 °FPassing clouds.9 mph11%29.92 "HgN/A
6:30 PM79 °FPassing clouds.9 mph11%29.92 "HgN/A
6:00 PM81 °FPassing clouds.5 mph11%29.92 "HgN/A
5:30 PM81 °FPassing clouds.5 mph11%29.92 "HgN/A
5:00 PM81 °FPassing clouds.5 mph10%29.92 "HgN/A
4:30 PM81 °FPassing clouds.5 mph10%29.92 "HgN/A
4:00 PM81 °FPassing clouds.7 mph11%29.92 "HgN/A
3:30 PM81 °FPassing clouds.7 mph11%29.95 "HgN/A
3:00 PM81 °FPassing clouds.12 mph11%29.95 "HgN/A
2:30 PM79 °FSunny.12 mph11%29.95 "Hg10 mi
2:00 PM77 °FSunny.18 mph12%29.98 "Hg10 mi
1:30 PM77 °FSunny.18 mph12%29.98 "Hg10 mi
1:00 PM79 °FSunny.14 mph11%29.98 "Hg10 mi
12:30 PM75 °FSunny.14 mph12%30.01 "Hg10 mi
12:00 PM73 °FClear.14 mph13%30.01 "Hg5 mi
11:30 AM73 °FClear.14 mph13%30.01 "Hg5 mi
11:00 AM73 °FClear.12 mph16%30.04 "Hg5 mi
10:30 AM72 °FClear.12 mph17%30.01 "Hg5 mi
10:00 AM70 °FHaze.14 mph18%30.04 "Hg3 mi
9:30 AM68 °FHaze.9 mph20%30.01 "Hg3 mi
9:00 AM66 °FClear.5 mph22%30.04 "Hg4 mi
8:30 AM66 °FClear.No wind22%30.01 "Hg4 mi
8:00 AM64 °FSunny.5 mph22%30.01 "Hg10 mi
7:30 AM63 °FClear.5 mph24%30.01 "Hg10 mi
7:00 AM61 °FClear.5 mph25%29.98 "Hg10 mi
6:30 AM59 °FClear.7 mph27%29.98 "Hg10 mi
6:00 AM59 °FClear.5 mph27%29.98 "Hg10 mi
5:30 AM63 °FClear.7 mph20%29.98 "Hg10 mi
5:00 AM64 °FClear.5 mph19%29.98 "Hg10 mi
4:30 AM64 °FClear.5 mph19%29.98 "Hg10 mi
4:00 AM66 °FClear.9 mph17%29.98 "Hg10 mi
Weather by CustomWeather, © 2015

See weather overviewHow to use our weather pages